Home > Weather > Unalaska > Past weeks

Flag for U.S.A. Weather for the Past 2 Weeks in Unalaska, Alaska, U.S.A.

Now
40 °F

Light rain. Overcast.


Feels Like: 28 °F
Forecast: 39 / 40 °F
Wind: 31 mph from East

Location: Dutch Harbor

Current Time: Feb 9, 2016 at 7:43:44 AM

Latest Report: Feb 9, 2016 at 6:56 AM


Visibility: 7 mi

Pressure: 29.26 "Hg

Humidity: 80%

Dew point: 34 °F

Location of UnalaskaLocation

Historic Weather in Unalaska — Graph

°F

Unalaska Temperature Yesterday

Maximum temperature yesterday: 39 °F (at 10:56 PM)
Minimum temperature yesterday: 32 °F (at 9:56 AM)
Average temperature yesterday: 35 °F

High & Low Weather Summary for the Past Weeks

 TemperatureHumidityPressure
High43 °F (Jan 30, 6:59 AM)93% (Jan 25, 10:56 AM)29.62 "Hg (Jan 25, 10:56 AM)
Low30 °F (Feb 1, 6:56 AM)52% (Jan 29, 4:56 AM)28.53 "Hg (Jan 25, 5:56 PM)
Average36 °F76%29.09 "Hg
* Reported Jan 25 6:56 AM — Feb 9 5:56 AM, Unalaska, Weather by CustomWeather, © 2016

Note: Actual official high and low records may vary slightly from our data, if they occured in-between our weather recording intervals... More about our weather records

Advertising

Unalaska Weather History for the Previous 24 Hours

 ConditionsComfort  
Time TempWeatherWind HumidityBarometerVisibility
5:56 AM
Tue, Feb 9
39 °FLight rain. Overcast.26 mph82%29.26 "Hg4 mi
4:56 AM39 °FLight rain. Overcast.31 mph82%29.26 "Hg6 mi
3:56 AM38 °FLight rain. Overcast.14 mph83%29.27 "Hg7 mi
2:56 AM40 °FLight rain. Mostly cloudy.20 mph70%29.27 "Hg10 mi
1:56 AM39 °FRain. Mostly cloudy.22 mph76%29.26 "Hg6 mi
12:56 AM39 °FLight rain. Mostly cloudy.20 mph73%29.27 "Hg8 mi
11:56 PM
Mon, Feb 8
39 °FLight rain. Mostly cloudy.14 mph73%29.26 "Hg10 mi
10:56 PM39 °FPassing clouds.16 mph73%29.26 "Hg10 mi
9:56 PM38 °FLight rain. Passing clouds.17 mph76%29.26 "Hg10 mi
8:56 PM38 °FMostly cloudy.13 mph76%29.25 "Hg10 mi
7:56 PM36 °FRain. Passing clouds.6 mph85%29.25 "Hg8 mi
6:56 PM38 °FLight rain. Overcast.10 mph73%29.23 "Hg10 mi
5:56 PM37 °FPartly sunny.3 mph76%29.23 "Hg10 mi
4:56 PM37 °FScattered clouds.3 mph76%29.22 "Hg10 mi
3:56 PM38 °FScattered clouds.3 mph73%29.21 "Hg10 mi
2:56 PM37 °FPassing clouds.5 mph73%29.22 "Hg10 mi
1:56 PM37 °FPassing clouds.5 mph73%29.23 "Hg10 mi
12:56 PM36 °FPassing clouds.No wind79%29.24 "Hg10 mi
11:56 AM35 °FPassing clouds.6 mph75%29.25 "Hg10 mi
10:56 AM32 °FScattered clouds.No wind88%29.24 "Hg10 mi
9:56 AM32 °FPartly sunny.No wind92%29.23 "Hg10 mi
8:56 AM33 °FPassing clouds.No wind88%29.23 "Hg10 mi
7:56 AM33 °FOvercast.No wind92%29.24 "Hg10 mi
Weather by CustomWeather, © 2016

See weather overviewHow to use our weather pages